SR9NLI Weather Reports


Display with metric or nautical units.
time (UTC)temp
F
wind
direction
speed
MPH
gust
MPH
rain 1hr
in
rain 24hr
in
rain mn
in
humidity
%
barometer
mb
20260902142054 70 291 4.0 8.0 0.00 0.00 0.00 100 961.8
20260902141851 71 288 4.0 8.0 0.00 0.00 0.00 100 961.7
20260902141648 71 293 3.0 8.0 0.00 0.00 0.00 100 961.9
20260902141445 71 283 2.0 5.0 0.00 0.00 0.00 100 961.8
20260902141344 71 296 1.0 5.0 0.00 0.00 0.00 100 961.8
20260902141241 71 290 0.0 4.0 0.00 0.00 0.00 100 961.9
20260902141038 70 279 3.0 6.0 0.00 0.00 0.00 100 962.0
20260902140836 69 283 4.0 6.0 0.00 0.00 0.00 100 962.0
20260902140735 69 288 4.0 5.0 0.00 0.00 0.00 100 961.9
20260902140633 69 290 4.0 7.0 0.00 0.00 0.00 100 962.0
20260902140429 69 297 4.0 7.0 0.00 0.00 0.00 100 961.9
20260902140226 70 305 3.0 6.0 0.00 0.00 0.00 100 962.0
20260902140125 70 304 3.0 6.0 0.00 0.00 0.00 100 961.9
20260902140023 70 303 3.0 6.0 0.00 0.00 0.00 100 962.0
20260902135819 70 300 3.0 6.0 0.00 0.00 0.00 100 962.0
20260902135616 70 278 3.0 6.0 0.00 0.00 0.00 100 962.0
20260902135413 70 269 2.0 6.0 0.00 0.00 0.00 100 962.0
20260902135209 71 263 2.0 6.0 0.00 0.00 0.00 100 962.0
20260902135007 71 253 2.0 5.0 0.00 0.00 0.00 100 962.0
20260902134906 71 248 2.0 5.0 0.00 0.00 0.00 100 962.0
20260902134803 71 237 1.0 5.0 0.00 0.00 0.00 100 962.0
20260902134600 72 0 1.0 3.0 0.00 0.00 0.00 100 962.0
20260902134357 72 242 1.0 4.0 0.00 0.00 0.00 100 962.0
20260902134153 71 240 1.0 4.0 0.00 0.00 0.00 100 962.0
20260902133950 71 0 1.0 3.0 0.00 0.00 0.00 100 962.0
20260902133747 71 0 1.0 4.0 0.00 0.00 0.00 100 962.1
20260902133647 71 263 2.0 6.0 0.00 0.00 0.00 100 962.0
20260902133544 70 271 3.0 8.0 0.00 0.00 0.00 100 962.0
20260902133340 69 270 4.0 8.0 0.00 0.00 0.00 100 962.0
20260902133137 70 255 3.0 7.0 0.00 0.00 0.00 100 962.0
20260902133036 70 248 3.0 7.0 0.00 0.00 0.00 100 961.9
20260902132934 70 250 3.0 7.0 0.00 0.00 0.00 100 962.0
20260902132731 70 247 2.0 9.0 0.00 0.00 0.00 100 962.0
20260902132528 70 247 2.0 9.0 0.00 0.00 0.00 100 962.0
20260902132427 70 229 2.0 9.0 0.00 0.00 0.00 100 962.0
20260902132325 70 0 1.0 4.0 0.00 0.00 0.00 100 961.9
20260902132122 70 219 1.0 4.0 0.00 0.00 0.00 100 962.0
20260902131918 70 0 1.0 2.0 0.00 0.00 0.00 100 962.0
20260902131817 70 0 1.0 2.0 0.00 0.00 0.00 100 962.0
20260902131715 70 0 1.0 4.0 0.00 0.00 0.00 100 962.0
20260902131511 70 0 1.0 5.0 0.00 0.00 0.00 100 962.0
20260902131309 70 0 1.0 5.0 0.00 0.00 0.00 100 962.0
20260902131208 70 0 1.0 6.0 0.00 0.00 0.00 100 962.1
20260902131105 70 0 1.0 6.0 0.00 0.00 0.00 100 962.1
20260902130902 70 234 2.0 6.0 0.00 0.00 0.00 100 962.0
20260902130658 70 237 1.0 6.0 0.00 0.00 0.00 100 962.1
20260902130544 70 250 2.0 6.0 0.00 0.00 0.00 100 961.9
20260902130442 70 253 2.0 6.0 0.00 0.00 0.00 100 962.1
20260902130240 70 281 3.0 6.0 0.00 0.00 0.00 100 962.0
20260902130037 70 298 5.0 8.0 0.00 0.00 0.00 100 962.0
20260902125936 69 298 5.0 10.0 0.00 0.00 0.00 100 962.0
20260902125834 70 300 4.0 10.0 0.00 0.00 0.00 100 961.9
20260902125630 70 264 5.0 11.0 0.00 0.00 0.00 100 962.1
20260902125427 70 254 6.0 11.0 0.00 0.00 0.00 100 962.1
20260902125326 70 253 6.0 10.0 0.00 0.00 0.00 100 962.1
20260902125223 70 249 5.0 10.0 0.00 0.00 0.00 100 962.1
20260902125020 70 261 6.0 12.0 0.00 0.00 0.00 100 962.1
20260902124817 70 267 6.0 12.0 0.00 0.00 0.00 100 962.0
20260902124717 70 266 5.0 12.0 0.00 0.00 0.00 100 962.1
20260902124614 70 259 4.0 10.0 0.00 0.00 0.00 100 962.1
20260902124411 71 230 2.0 8.0 0.00 0.00 0.00 100 962.1
20260902124207 71 226 2.0 8.0 0.00 0.00 0.00 100 962.0
20260902124005 71 225 2.0 8.0 0.00 0.00 0.00 100 962.0
20260902123802 71 229 2.0 8.0 0.00 0.00 0.00 100 962.1
20260902123559 71 239 2.0 8.0 0.00 0.00 0.00 100 962.1
20260902123458 71 239 2.0 8.0 0.00 0.00 0.00 100 962.1
20260902123355 71 241 2.0 7.0 0.00 0.00 0.00 100 962.1
20260902123152 71 238 2.0 6.0 0.00 0.00 0.00 100 962.2
20260902122949 72 236 2.0 6.0 0.00 0.00 0.00 100 962.1
20260902122848 72 233 1.0 6.0 0.00 0.00 0.00 100 962.1
20260902122746 72 240 1.0 6.0 0.00 0.00 0.00 100 962.2
20260902122543 72 231 2.0 6.0 0.00 0.00 0.00 100 962.1
20260902122340 73 233 2.0 9.0 0.00 0.00 0.00 100 962.1
20260902122239 73 244 2.0 9.0 0.00 0.00 0.00 100 962.1
20260902122137 73 0 2.0 9.0 0.00 0.00 0.00 100 962.0
20260902121933 73 0 2.0 6.0 0.00 0.00 0.00 100 962.1
20260902121730 73 241 2.0 7.0 0.00 0.00 0.00 100 962.1
20260902121630 73 236 2.0 7.0 0.00 0.00 0.00 100 962.1
20260902121527 73 243 2.0 7.0 0.00 0.00 0.00 100 962.2
20260902121324 73 230 2.0 7.0 0.00 0.00 0.00 100 962.1
20260902121121 73 225 2.0 8.0 0.00 0.00 0.00 100 962.2
20260902120918 73 243 2.0 8.0 0.00 0.00 0.00 100 962.2
20260902120715 73 262 2.0 6.0 0.00 0.00 0.00 100 962.2
20260902120512 73 232 2.0 6.0 0.00 0.00 0.00 100 962.3
20260902120411 74 227 2.0 6.0 0.00 0.00 0.00 100 962.3
20260902120309 74 201 2.0 8.0 0.00 0.00 0.00 100 962.2
20260902120105 73 185 2.0 8.0 0.00 0.00 0.00 100 962.3
20260902115902 73 187 2.0 8.0 0.00 0.00 0.00 100 962.2
20260902115802 74 237 2.0 6.0 0.00 0.00 0.00 100 962.4
20260902115700 74 243 2.0 7.0 0.00 0.00 0.00 100 962.3
20260902115456 73 210 3.0 9.0 0.00 0.00 0.00 100 962.4
20260902115253 72 172 3.0 9.0 0.00 0.00 0.00 100 962.4
20260902115152 72 174 3.0 11.0 0.00 0.00 0.00 100 962.3
20260902115050 73 183 3.0 11.0 0.00 0.00 0.00 100 962.4
20260902114847 73 198 2.0 11.0 0.00 0.00 0.00 100 962.4
20260902114643 73 222 2.0 9.0 0.00 0.00 0.00 100 962.5
20260902114543 73 230 2.0 9.0 0.00 0.00 0.00 100 962.4
20260902114441 73 224 2.0 9.0 0.00 0.00 0.00 100 962.4
20260902114237 73 228 2.0 9.0 0.00 0.00 0.00 100 962.5
20260902114035 73 218 2.0 9.0 0.00 0.00 0.00 100 962.6
20260902113934 73 215 2.0 8.0 0.00 0.00 0.00 100 962.5
20260902113832 73 0 1.0 5.0 0.00 0.00 0.00 100 962.5
20260902113629 73 0 1.0 9.0 0.00 0.00 0.00 100 962.6
20260902113426 73 213 2.0 9.0 0.00 0.00 0.00 100 962.6
20260902113326 73 219 2.0 9.0 0.00 0.00 0.00 100 962.6
20260902113224 72 221 2.0 8.0 0.00 0.00 0.00 100 962.5
20260902113020 72 233 2.0 8.0 0.00 0.00 0.00 100 962.6
20260902112818 71 235 2.0 7.0 0.00 0.00 0.00 100 962.6
20260902112717 71 243 1.0 7.0 0.00 0.00 0.00 100 962.6
20260902112614 71 0 1.0 6.0 0.00 0.00 0.00 100 962.6
20260902112411 70 0 1.0 6.0 0.00 0.00 0.00 100 962.6
20260902112208 69 224 2.0 6.0 0.00 0.00 0.00 100 962.6
20260902112005 70 0 1.0 6.0 0.00 0.00 0.00 100 962.6
20260902111802 70 0 1.0 6.0 0.00 0.00 0.00 100 962.6
20260902111559 71 0 1.0 10.0 0.00 0.00 0.00 100 962.8
20260902111458 71 0 2.0 13.0 0.00 0.00 0.00 100 962.8
20260902111357 71 188 3.0 13.0 0.00 0.00 0.00 100 962.7
20260902111154 71 182 3.0 13.0 0.00 0.00 0.00 100 962.6
20260902110951 72 175 3.0 12.0 0.00 0.00 0.00 100 962.6
20260902110851 72 172 3.0 12.0 0.00 0.00 0.00 100 962.7
20260902110748 71 179 3.0 12.0 0.00 0.00 0.00 100 962.6
20260902110544 71 199 2.0 11.0 0.00 0.00 0.00 100 962.8
20260902110341 71 210 2.0 11.0 0.00 0.00 0.00 100 962.7
20260902110240 71 196 2.0 11.0 0.00 0.00 0.00 100 962.7
20260902110138 71 201 2.0 7.0 0.00 0.00 0.00 100 962.7
20260902105935 71 213 2.0 8.0 0.00 0.00 0.00 100 962.8
20260902105732 71 174 3.0 12.0 0.00 0.00 0.00 100 962.7
20260902105630 71 174 3.0 12.0 0.00 0.00 0.00 100 962.7
20260902105528 70 173 3.0 12.0 0.00 0.00 0.00 100 962.7
20260902105326 70 193 1.0 8.0 0.00 0.00 0.00 100 962.7
20260902105123 69 0 1.0 4.0 0.00 0.00 0.00 100 962.7
20260902105023 69 0 1.0 4.0 0.00 0.00 0.00 100 962.7
20260902104920 68 0 1.0 4.0 0.00 0.00 0.00 100 962.8
20260902104717 68 0 1.0 5.0 0.00 0.00 0.00 100 962.9
20260902104515 67 224 2.0 6.0 0.00 0.00 0.00 100 962.9
20260902104414 67 232 2.0 6.0 0.00 0.00 0.00 100 962.9
20260902104313 67 242 2.0 6.0 0.00 0.00 0.00 100 962.9
20260902104109 67 263 2.0 6.0 0.00 0.00 0.00 100 962.9
20260902103906 67 267 3.0 7.0 0.00 0.00 0.00 100 962.8
20260902103510 67 284 4.0 7.0 0.00 0.00 0.00 100 962.9
20260902103410 67 285 4.0 8.0 0.00 0.00 0.00 100 962.9
20260902103307 66 285 4.0 8.0 0.00 0.00 0.00 100 962.9
20260902103104 67 283 6.0 9.0 0.00 0.00 0.00 100 962.9
20260902102901 67 261 5.0 9.0 0.00 0.00 0.00 100 962.9
20260902102800 67 255 4.0 9.0 0.00 0.00 0.00 100 962.9
20260902102654 67 258 4.0 9.0 0.00 0.00 0.00 100 962.9
20260902102451 67 254 4.0 9.0 0.00 0.00 0.00 100 962.9
20260902102248 67 253 4.0 12.0 0.00 0.00 0.00 100 962.8
20260902102032 67 261 6.0 14.0 0.00 0.00 0.00 100 962.8
20260902101829 68 263 7.0 14.0 0.00 0.00 0.00 100 962.9
20260902101626 68 259 5.0 13.0 0.00 0.00 0.00 100 962.9
20260902101525 68 257 5.0 13.0 0.00 0.00 0.00 100 962.8
20260902101422 69 244 3.0 11.0 0.00 0.00 0.00 100 962.9
20260902101219 71 219 2.0 7.0 0.00 0.00 0.00 100 962.9
20260902101017 71 217 1.0 5.0 0.00 0.00 0.00 100 962.9
20260902100916 71 180 2.0 6.0 0.00 0.00 0.00 100 962.9
20260902100813 72 146 3.0 7.0 0.00 0.00 0.00 100 962.9
20260902100610 71 143 3.0 7.0 0.00 0.00 0.00 100 962.9
20260902100407 72 185 2.0 7.0 0.00 0.00 0.00 100 963.0
20260902100306 73 206 2.0 7.0 0.00 0.00 0.00 100 963.0
20260902100204 72 212 2.0 7.0 0.00 0.00 0.00 100 962.9
20260902100001 72 233 2.0 7.0 0.00 0.00 0.00 100 963.0
20260902095758 72 222 2.0 6.0 0.00 0.00 0.00 100 963.1
20260902095657 72 212 2.0 7.0 0.00 0.00 0.00 100 963.0
20260902095555 72 205 2.0 7.0 0.00 0.00 0.00 100 963.1
20260902095351 71 199 2.0 7.0 0.00 0.00 0.00 100 963.0
20260902095149 72 0 2.0 6.0 0.00 0.00 0.00 100 963.0
20260902094945 71 222 2.0 9.0 0.00 0.00 0.00 100 963.1
20260902094742 71 226 2.0 9.0 0.00 0.00 0.00 100 963.1
20260902094539 71 217 2.0 6.0 0.00 0.00 0.00 100 963.0
20260902094438 72 232 2.0 6.0 0.00 0.00 0.00 100 963.2
20260902094336 72 200 2.0 11.0 0.00 0.00 0.00 100 963.2
20260902094133 71 202 2.0 11.0 0.00 0.00 0.00 100 963.2
20260902093929 71 0 2.0 6.0 0.00 0.00 0.00 100 963.1
20260902093829 71 0 1.0 6.0 0.00 0.00 0.00 100 963.2
20260902093727 71 0 1.0 6.0 0.00 0.00 0.00 100 963.3
20260902093523 70 0 1.0 5.0 0.00 0.00 0.00 100 963.3
20260902093320 70 225 2.0 8.0 0.00 0.00 0.00 100 963.1
20260902093219 70 218 2.0 8.0 0.00 0.00 0.00 100 963.2
20260902093116 70 217 2.0 8.0 0.00 0.00 0.00 100 963.2
20260902092914 70 222 2.0 7.0 0.00 0.00 0.00 100 963.2
20260902092711 70 225 1.0 6.0 0.00 0.00 0.00 100 963.3
20260902092611 70 227 1.0 6.0 0.00 0.00 0.00 100 963.3
20260902092505 70 230 2.0 6.0 0.00 0.00 0.00 100 963.2
20260902092305 70 234 2.0 9.0 0.00 0.00 0.00 100 963.2
20260902092059 70 229 2.0 9.0 0.00 0.00 0.00 100 963.3
20260902091959 70 233 2.0 6.0 0.00 0.00 0.00 100 963.3
20260902091856 70 0 2.0 6.0 0.00 0.00 0.00 100 963.2
20260902091652 70 0 1.0 6.0 0.00 0.00 0.00 100 963.2
20260902091450 70 0 2.0 6.0 0.00 0.00 0.00 100 963.3
20260902091349 69 227 2.0 6.0 0.00 0.00 0.00 100 963.3
20260902091247 69 222 2.0 8.0 0.00 0.00 0.00 100 963.3
20260902091044 69 245 4.0 11.0 0.00 0.00 0.00 100 963.3
20260902090841 68 237 5.0 14.0 0.00 0.00 0.00 100 963.3
20260902090638 68 161 4.0 14.0 0.00 0.00 0.00 100 963.2
20260902090435 68 91 2.0 5.0 0.00 0.00 0.00 100 963.4
20260902090232 67 23 2.0 5.0 0.00 0.00 0.00 100 963.3
20260902090131 66 13 2.0 3.0 0.00 0.00 0.00 100 963.4
20260902090029 67 15 1.0 4.0 0.00 0.00 0.00 100 963.4
20260902085827 67 56 1.0 3.0 0.00 0.00 0.00 100 963.4
20260902085623 65 39 2.0 6.0 0.00 0.00 0.00 100 963.3
20260902085523 64 39 3.0 7.0 0.00 0.00 0.00 100 963.4
20260902085421 64 40 3.0 7.0 0.00 0.00 0.00 100 963.4
20260902085217 65 28 3.0 7.0 0.00 0.00 0.00 100 963.4
20260902085014 65 1 2.0 4.0 0.00 0.00 0.00 100 963.3
20260902084914 65 355 2.0 4.0 0.00 0.00 0.00 100 963.3
20260902084811 65 357 2.0 3.0 0.00 0.00 0.00 100 963.4
20260902084608 64 351 2.0 3.0 0.00 0.00 0.00 100 963.3
20260902084404 64 352 3.0 5.0 0.00 0.00 0.00 100 963.3
20260902084201 64 0 3.0 6.0 0.00 0.00 0.00 100 963.4
20260902083957 64 10 2.0 6.0 0.00 0.00 0.00 100 963.3
20260902083754 63 6 3.0 6.0 0.00 0.00 0.00 100 963.4
20260902083654 63 2 3.0 6.0 0.00 0.00 0.00 100 963.3
20260902083551 62 359 4.0 6.0 0.00 0.00 0.00 100 963.4
20260902083348 62 4 4.0 6.0 0.00 0.00 0.00 100 963.4
20260902083145 63 9 3.0 6.0 0.00 0.00 0.00 100 963.3
20260902083044 62 16 4.0 6.0 0.00 0.00 0.00 100 963.4
20260902082941 62 8 4.0 6.0 0.00 0.00 0.00 100 963.4
20260902082738 62 3 4.0 6.0 0.00 0.00 0.00 100 963.4
20260902082535 62 356 3.0 5.0 0.00 0.00 0.00 100 963.3
20260902082435 62 349 2.0 5.0 0.00 0.00 0.00 100 963.3
20260902082329 62 350 2.0 4.0 0.00 0.00 0.00 100 963.5
20260902082126 62 2 2.0 4.0 0.00 0.00 0.00 100 963.4
20260902081923 62 7 3.0 5.0 0.00 0.00 0.00 100 963.4
20260902081720 62 46 2.0 5.0 0.00 0.00 0.00 100 963.3
20260902081517 62 94 2.0 4.0 0.00 0.00 0.00 100 963.3
20260902081313 62 112 2.0 4.0 0.00 0.00 0.00 100 963.3
20260902081213 62 120 1.0 3.0 0.00 0.00 0.00 100 963.3
20260902081110 61 0 1.0 3.0 0.00 0.00 0.00 100 963.3
20260902080907 60 359 2.0 5.0 0.00 0.00 0.00 100 963.4
20260902080704 60 355 3.0 5.0 0.00 0.00 0.00 100 963.3
20260902080602 60 1 3.0 5.0 0.00 0.00 0.00 100 963.3
20260902080500 60 1 3.0 4.0 0.00 0.00 0.00 100 963.3
20260902080257 60 357 3.0 6.0 0.00 0.00 0.00 100 963.3
20260902080054 59 0 3.0 6.0 0.00 0.00 0.00 100 963.3
20260902075953 59 355 3.0 6.0 0.00 0.00 0.00 100 963.4
20260902075851 59 350 3.0 5.0 0.00 0.00 0.00 100 963.2
20260902075648 59 344 3.0 5.0 0.00 0.00 0.00 100 963.4
20260902075445 59 357 3.0 4.0 0.00 0.00 0.00 100 963.3
20260902075344 59 2 3.0 4.0 0.00 0.00 0.00 100 963.3
20260902075241 59 1 3.0 4.0 0.00 0.00 0.00 100 963.3
20260902075038 59 359 2.0 4.0 0.00 0.00 0.00 100 963.3
20260902074836 59 3 2.0 4.0 0.00 0.00 0.00 100 963.2
20260902074735 59 5 2.0 4.0 0.00 0.00 0.00 100 963.2
20260902074633 59 0 2.0 4.0 0.00 0.00 0.00 100 963.3
20260902074430 59 4 2.0 4.0 0.00 0.00 0.00 100 963.3
20260902074214 59 7 2.0 4.0 0.00 0.00 0.00 100 963.3
20260902074010 59 352 2.0 4.0 0.00 0.00 0.00 100 963.3
20260902073807 59 350 2.0 4.0 0.00 0.00 0.00 100 963.3
20260902073604 59 0 2.0 3.0 0.00 0.00 0.00 100 963.2
20260902073503 59 0 2.0 3.0 0.00 0.00 0.00 100 963.3
20260902073401 59 1 1.0 3.0 0.00 0.00 0.00 100 963.3
20260902073158 59 3 1.0 3.0 0.00 0.00 0.00 100 963.3
20260902072955 58 24 1.0 3.0 0.00 0.00 0.00 100 963.2
20260902072855 58 56 1.0 3.0 0.00 0.00 0.00 100 963.3
20260902072752 58 68 1.0 3.0 0.00 0.00 0.00 100 963.3
20260902072549 58 49 1.0 3.0 0.00 0.00 0.00 100 963.3
20260902072346 57 3 2.0 3.0 0.00 0.00 0.00 100 963.1
20260902072244 57 350 2.0 3.0 0.00 0.00 0.00 100 963.1
20260902072139 57 341 2.0 3.0 0.00 0.00 0.00 100 963.1
20260902071936 57 350 2.0 2.0 0.00 0.00 0.00 100 963.2
20260902071733 57 356 2.0 2.0 0.00 0.00 0.00 100 963.1
20260902071529 57 348 2.0 3.0 0.00 0.00 0.00 100 963.2
20260902071326 57 0 1.0 3.0 0.00 0.00 0.00 100 963.2
20260902071123 57 2 2.0 3.0 0.00 0.00 0.00 100 963.3
20260902071022 57 4 2.0 3.0 0.00 0.00 0.00 100 963.3
20260902070920 57 2 2.0 3.0 0.00 0.00 0.00 100 963.2
20260902070716 57 343 1.0 3.0 0.00 0.00 0.00 100 963.2
20260902070512 58 0 0.0 2.0 0.00 0.00 0.00 100 963.2
20260902070412 59 0 0.0 2.0 0.00 0.00 0.00 100 963.2
20260902070310 59 0 0.0 2.0 0.00 0.00 0.00 100 963.2
20260902070106 58 0 0.0 2.0 0.00 0.00 0.00 100 963.3
20260902065903 57 0 0.0 2.0 0.00 0.00 0.00 100 963.2
20260902065803 56 0 0.0 2.0 0.00 0.00 0.00 100 963.2
20260902065700 56 0 0.0 2.0 0.00 0.00 0.00 100 963.2
20260902065458 55 328 1.0 2.0 0.00 0.00 0.00 100 963.2
20260902065254 55 352 1.0 2.0 0.00 0.00 0.00 100 963.2
20260902065153 55 2 1.0 2.0 0.00 0.00 0.00 100 963.3
20260902065051 55 21 1.0 2.0 0.00 0.00 0.00 100 963.3
20260902064847 55 8 1.0 3.0 0.00 0.00 0.00 100 963.3
20260902064643 54 359 2.0 3.0 0.00 0.00 0.00 100 963.2
20260902064543 54 341 2.0 3.0 0.00 0.00 0.00 100 963.3
20260902064440 54 324 2.0 4.0 0.00 0.00 0.00 100 963.2
20260902064237 54 321 2.0 4.0 0.00 0.00 0.00 100 963.2
20260902064034 53 345 3.0 3.0 0.00 0.00 0.00 100 963.1
20260902063934 53 346 3.0 3.0 0.00 0.00 0.00 100 963.1
20260902063831 53 345 3.0 4.0 0.00 0.00 0.00 100 963.2
20260902063628 53 342 2.0 4.0 0.00 0.00 0.00 100 963.2
20260902063425 53 350 2.0 4.0 0.00 0.00 0.00 100 963.3
20260902063324 53 355 2.0 4.0 0.00 0.00 0.00 100 963.1
20260902063222 53 359 2.0 4.0 0.00 0.00 0.00 100 963.2
20260902063019 53 359 2.0 4.0 0.00 0.00 0.00 100 963.1
20260902062816 53 351 2.0 3.0 0.00 0.00 0.00 100 963.2
20260902062715 53 356 2.0 3.0 0.00 0.00 0.00 100 963.2
20260902062613 53 4 2.0 3.0 0.00 0.00 0.00 100 963.2
20260902062410 53 37 1.0 3.0 0.00 0.00 0.00 100 963.2
20260902062206 54 102 1.0 3.0 0.00 0.00 0.00 100 963.2
20260902062105 54 116 1.0 3.0 0.00 0.00 0.00 100 963.3
20260902061959 54 114 1.0 3.0 0.00 0.00 0.00 100 963.2
20260902061756 54 87 1.0 3.0 0.00 0.00 0.00 100 963.2
20260902061552 53 82 1.0 2.0 0.00 0.00 0.00 100 963.2
20260902061452 53 75 1.0 2.0 0.00 0.00 0.00 100 963.2
20260902061350 53 62 0.0 2.0 0.00 0.00 0.00 100 963.1
20260902061147 53 0 0.0 1.0 0.00 0.00 0.00 100 963.1
20260902060943 53 329 1.0 1.0 0.00 0.00 0.00 100 963.1
20260902060842 53 331 1.0 1.0 0.00 0.00 0.00 100 963.2
20260902060739 52 0 0.0 1.0 0.00 0.00 0.00 100 963.2
20260902060536 52 6 1.0 1.0 0.00 0.00 0.00 100 963.2
20260902060333 52 0 1.0 2.0 0.00 0.00 0.00 100 963.2
20260902060233 52 356 1.0 2.0 0.00 0.00 0.00 100 963.2
20260902060131 52 356 1.0 2.0 0.00 0.00 0.00 100 963.2
20260902055927 52 349 1.0 3.0 0.00 0.00 0.00 100 963.3
20260902055724 52 355 1.0 3.0 0.00 0.00 0.00 100 963.2
20260902055623 51 352 1.0 2.0 0.00 0.00 0.00 100 963.2
20260902055520 51 354 1.0 2.0 0.00 0.00 0.00 100 963.3
20260902055318 51 333 1.0 2.0 0.00 0.00 0.00 100 963.2
20260902055114 51 317 1.0 2.0 0.00 0.00 0.00 100 963.2
20260902055014 51 324 1.0 2.0 0.00 0.00 0.00 100 963.2
20260902054911 51 328 1.0 2.0 0.00 0.00 0.00 100 963.3
20260902054709 51 334 1.0 2.0 0.00 0.00 0.00 100 963.2
20260902054506 51 352 1.0 2.0 0.00 0.00 0.00 100 963.3
20260902054405 51 353 1.0 2.0 0.00 0.00 0.00 100 963.3
20260902054302 51 354 1.0 2.0 0.00 0.00 0.00 100 963.3
20260902054059 51 359 2.0 2.0 0.00 0.00 0.00 100 963.3
20260902053855 51 357 1.0 2.0 0.00 0.00 0.00 100 963.3
20260902053755 51 358 2.0 2.0 0.00 0.00 0.00 100 963.2
20260902053652 50 359 2.0 3.0 0.00 0.00 0.00 100 963.2
20260902053449 50 1 2.0 3.0 0.00 0.00 0.00 100 963.2
20260902053246 50 4 2.0 3.0 0.00 0.00 0.00 100 963.2
20260902053145 50 6 2.0 3.0 0.00 0.00 0.00 100 963.3
20260902053043 50 5 2.0 4.0 0.00 0.00 0.00 100 963.2
20260902052840 50 356 2.0 4.0 0.00 0.00 0.00 100 963.2
20260902052636 50 342 2.0 3.0 0.00 0.00 0.00 100 963.2
20260902052535 50 340 2.0 3.0 0.00 0.00 0.00 100 963.1
20260902052433 51 344 2.0 3.0 0.00 0.00 0.00 100 963.1
20260902052229 51 1 2.0 3.0 0.00 0.00 0.00 100 963.1
20260902052026 51 26 2.0 4.0 0.00 0.00 0.00 100 963.1
20260902051926 51 37 2.0 3.0 0.00 0.00 0.00 100 963.2
20260902051820 51 40 2.0 3.0 0.00 0.00 0.00 100 963.2
20260902051617 51 77 2.0 3.0 0.00 0.00 0.00 100 963.1
20260902051414 51 130 2.0 3.0 0.00 0.00 0.00 100 963.0
20260902051313 51 131 2.0 3.0 0.00 0.00 0.00 100 963.0
20260902051210 51 132 2.0 3.0 0.00 0.00 0.00 100 963.1
20260902051007 51 0 1.0 3.0 0.00 0.00 0.00 100 963.0
20260902050804 51 0 1.0 2.0 0.00 0.00 0.00 100 963.0
20260902050703 51 324 1.0 2.0 0.00 0.00 0.00 100 963.1
20260902050600 51 326 1.0 2.0 0.00 0.00 0.00 100 963.1
20260902050357 51 0 0.0 1.0 0.00 0.00 0.00 100 963.0
20260902050143 51 0 0.0 1.0 0.00 0.00 0.00 100 963.0
20260902050043 51 0 1.0 2.0 0.00 0.00 0.00 100 962.9
20260902045940 51 0 0.0 2.0 0.00 0.00 0.00 100 962.9
20260902045737 51 0 0.0 2.0 0.00 0.00 0.00 100 963.0
20260902045534 51 0 0.0 2.0 0.00 0.00 0.00 100 963.0
20260902045433 51 0 0.0 2.0 0.00 0.00 0.00 100 963.1
20260902045331 51 317 0.0 2.0 0.00 0.00 0.00 100 962.9
20260902045128 51 323 0.0 2.0 0.00 0.00 0.00 100 963.0
20260902044925 51 0 0.0 2.0 0.00 0.00 0.00 100 963.0
20260902044824 51 0 0.0 1.0 0.00 0.00 0.00 100 963.0
20260902044722 50 0 0.0 1.0 0.00 0.00 0.00 100 963.0
20260902044519 50 0 1.0 2.0 0.00 0.00 0.00 100 962.9
20260902044316 49 306 1.0 2.0 0.00 0.00 0.00 100 962.9
20260902044215 49 304 1.0 2.0 0.00 0.00 0.00 100 962.9
20260902044113 49 301 1.0 2.0 0.00 0.00 0.00 100 963.0
20260902043909 49 0 0.0 2.0 0.00 0.00 0.00 100 963.0
20260902043706 48 0 0.0 2.0 0.00 0.00 0.00 100 963.0
20260902043606 48 0 0.0 2.0 0.00 0.00 0.00 100 963.0
20260902043504 48 0 0.0 1.0 0.00 0.00 0.00 100 963.0
20260902043301 48 275 1.0 2.0 0.00 0.00 0.00 100 962.9
20260902043057 47 283 2.0 3.0 0.00 0.00 0.00 100 962.8
20260902042956 47 288 2.0 3.0 0.00 0.00 0.00 100 962.8
20260902042854 47 293 2.0 3.0 0.00 0.00 0.00 100 962.9
20260902042651 47 311 2.0 2.0 0.00 0.00 0.00 100 963.0
20260902042449 47 332 2.0 2.0 0.00 0.00 0.00 100 962.9
20260902042348 47 340 2.0 2.0 0.00 0.00 0.00 100 962.9
20260902042245 47 346 2.0 2.0 0.00 0.00 0.00 100 962.9
20260902042042 47 358 2.0 3.0 0.00 0.00 0.00 100 963.0
20260902041839 47 347 2.0 2.0 0.00 0.00 0.00 100 962.9
20260902041632 48 334 1.0 2.0 0.00 0.00 0.00 100 962.9
20260902041429 47 335 1.0 1.0 0.00 0.00 0.00 100 962.9
20260902041226 48 341 1.0 2.0 0.00 0.00 0.00 100 962.9
20260902041125 48 346 1.0 2.0 0.00 0.00 0.00 100 962.9
20260902041023 48 6 1.0 2.0 0.00 0.00 0.00 100 962.8
20260902040819 48 13 1.0 2.0 0.00 0.00 0.00 100 962.9
20260902040616 47 5 2.0 2.0 0.00 0.00 0.00 100 962.9
20260902040516 47 355 2.0 2.0 0.00 0.00 0.00 100 962.9
20260902040414 48 351 2.0 2.0 0.00 0.00 0.00 100 962.9
20260902040210 48 345 2.0 3.0 0.00 0.00 0.00 100 962.9
20260902040007 48 344 2.0 3.0 0.00 0.00 0.00 100 963.0
20260902035907 48 347 3.0 3.0 0.00 0.00 0.00 100 963.0
20260902035804 48 350 3.0 3.0 0.00 0.00 0.00 100 963.0
20260902035600 48 354 3.0 3.0 0.00 0.00 0.00 100 963.0
20260902035357 49 351 2.0 3.0 0.00 0.00 0.00 100 963.0
20260902035256 49 348 2.0 2.0 0.00 0.00 0.00 100 963.0
20260902035154 49 343 2.0 2.0 0.00 0.00 0.00 100 963.1
20260902034951 48 330 2.0 2.0 0.00 0.00 0.00 100 963.0
20260902034748 48 312 2.0 2.0 0.00 0.00 0.00 100 963.1
20260902034646 48 304 1.0 2.0 0.00 0.00 0.00 100 963.1
20260902034543 48 300 1.0 2.0 0.00 0.00 0.00 100 963.1
20260902034340 48 296 1.0 2.0 0.00 0.00 0.00 100 963.1
20260902034137 48 298 2.0 2.0 0.00 0.00 0.00 100 963.2
20260902034037 48 296 2.0 2.0 0.00 0.00 0.00 100 963.1
20260902033934 48 294 2.0 2.0 0.00 0.00 0.00 100 963.2
20260902033731 48 313 1.0 2.0 0.00 0.00 0.00 100 963.1
20260902033529 48 343 2.0 3.0 0.00 0.00 0.00 100 963.1
20260902033428 48 350 2.0 3.0 0.00 0.00 0.00 100 963.2
20260902033326 48 350 2.0 3.0 0.00 0.00 0.00 100 963.0
20260902033122 48 340 2.0 3.0 0.00 0.00 0.00 100 963.1
20260902032919 48 353 1.0 3.0 0.00 0.00 0.00 100 963.1
20260902032818 48 3 2.0 3.0 0.00 0.00 0.00 100 963.0
20260902032717 48 6 2.0 4.0 0.00 0.00 0.00 100 963.1
20260902032513 49 6 2.0 4.0 0.00 0.00 0.00 100 963.1
20260902032310 49 3 2.0 3.0 0.00 0.00 0.00 100 963.1
20260902032210 49 359 1.0 3.0 0.00 0.00 0.00 100 963.1
20260902032108 49 342 1.0 3.0 0.00 0.00 0.00 100 963.0
20260902031905 49 0 0.0 2.0 0.00 0.00 0.00 100 963.0
20260902031701 49 0 0.0 2.0 0.00 0.00 0.00 100 963.0
20260902031600 49 252 0.0 2.0 0.00 0.00 0.00 100 963.0
20260902031454 49 0 0.0 2.0 0.00 0.00 0.00 100 963.0
20260902031251 49 0 0.0 2.0 0.00 0.00 0.00 100 963.1
20260902031047 49 0 0.0 3.0 0.00 0.00 0.00 100 963.0
20260902030946 49 0 0.0 3.0 0.00 0.00 0.00 100 963.1
20260902030844 49 0 0.0 3.0 0.00 0.00 0.00 100 963.0
20260902030642 49 0 0.0 1.0 0.00 0.00 0.00 100 963.0
20260902030439 49 0 0.0 1.0 0.00 0.00 0.00 100 963.1
20260902030339 49 0 0.0 2.0 0.00 0.00 0.00 100 963.0
20260902030236 49 0 1.0 2.0 0.00 0.00 0.00 100 963.0
20260902030033 49 201 0.0 2.0 0.00 0.00 0.00 100 963.1
20260902025830 49 200 0.0 2.0 0.00 0.00 0.00 100 963.1
20260902025730 49 0 0.0 2.0 0.00 0.00 0.00 100 963.0
20260902025627 49 0 0.0 2.0 0.00 0.00 0.00 100 963.1
20260902025424 49 0 0.0 2.0 0.00 0.00 0.00 100 963.1
20260902025221 49 0 0.0 1.0 0.00 0.00 0.00 100 963.1
20260902025120 49 0 0.0 2.0 0.00 0.00 0.00 100 963.1
20260902025018 49 283 1.0 2.0 0.00 0.00 0.00 100 963.1
20260902024814 49 298 2.0 2.0 0.00 0.00 0.00 100 963.0
20260902024611 48 303 2.0 3.0 0.00 0.00 0.00 100 963.0
20260902024511 48 303 2.0 3.0 0.00 0.00 0.00 100 963.0
20260902024408 48 303 2.0 3.0 0.00 0.00 0.00 100 963.2
20260902024205 48 302 3.0 3.0 0.00 0.00 0.00 100 963.0
20260902024002 48 300 3.0 3.0 0.00 0.00 0.00 100 963.0
20260902023901 48 298 3.0 3.0 0.00 0.00 0.00 100 963.1
20260902023758 48 302 3.0 4.0 0.00 0.00 0.00 100 963.0
20260902023555 48 313 3.0 4.0 0.00 0.00 0.00 100 963.0
20260902023352 48 323 3.0 4.0 0.00 0.00 0.00 100 963.0
20260902023251 48 324 3.0 4.0 0.00 0.00 0.00 100 963.0
20260902023149 48 323 3.0 3.0 0.00 0.00 0.00 100 962.9
20260902022946 48 326 2.0 3.0 0.00 0.00 0.00 100 963.0
20260902022743 48 332 2.0 2.0 0.00 0.00 0.00 100 963.0
20260902022643 48 331 2.0 2.0 0.00 0.00 0.00 100 963.0
20260902022540 48 328 2.0 2.0 0.00 0.00 0.00 100 963.1
20260902022325 49 319 2.0 2.0 0.00 0.00 0.00 100 962.9
20260902022123 49 303 2.0 2.0 0.00 0.00 0.00 100 963.0
20260902021919 49 310 1.0 2.0 0.00 0.00 0.00 100 962.9
20260902021716 49 327 1.0 2.0 0.00 0.00 0.00 100 962.9
20260902021513 49 296 0.0 2.0 0.00 0.00 0.00 100 963.1
20260902021413 49 292 1.0 2.0 0.00 0.00 0.00 100 963.0
20260902021306 49 301 1.0 2.0 0.00 0.00 0.00 100 963.0
20260902021103 49 325 2.0 2.0 0.00 0.00 0.00 100 963.0
20260902020901 49 321 2.0 3.0 0.00 0.00 0.00 100 962.9
20260902020759 49 321 2.0 3.0 0.00 0.00 0.00 100 963.0
20260902020657 49 321 2.0 3.0 0.00 0.00 0.00 100 962.9
20260902020454 49 318 2.0 3.0 0.00 0.00 0.00 100 963.0
20260902020251 49 301 2.0 2.0 0.00 0.00 0.00 100 962.9
20260902020150 49 296 2.0 2.0 0.00 0.00 0.00 100 963.1
20260902020048 49 303 2.0 2.0 0.00 0.00 0.00 100 963.1
20260902015845 49 336 2.0 2.0 0.00 0.00 0.00 100 963.0
20260902015642 49 352 2.0 3.0 0.00 0.00 0.00 100 963.0
20260902015541 49 347 2.0 2.0 0.00 0.00 0.00 100 963.0
20260902015438 49 343 2.0 3.0 0.00 0.00 0.00 100 963.0
20260902015236 49 342 2.0 3.0 0.00 0.00 0.00 100 963.0
20260902015033 50 346 2.0 2.0 0.00 0.00 0.00 100 963.0
20260902014932 50 347 2.0 2.0 0.00 0.00 0.00 100 962.9
20260902014830 50 346 1.0 2.0 0.00 0.00 0.00 100 963.0
20260902014627 50 345 1.0 2.0 0.00 0.00 0.00 100 962.9
20260902014424 49 0 0.0 2.0 0.00 0.00 0.00 100 963.0
20260902014323 49 0 0.0 1.0 0.00 0.00 0.00 100 963.0
20260902014221 49 0 0.0 2.0 0.00 0.00 0.00 100 962.9
20260902014017 49 0 1.0 2.0 0.00 0.00 0.00 100 963.0
20260902013815 49 296 2.0 3.0 0.00 0.00 0.00 100 963.1
20260902013714 49 302 2.0 3.0 0.00 0.00 0.00 100 963.0
20260902013612 49 306 2.0 3.0 0.00 0.00 0.00 100 963.1
20260902013409 49 304 3.0 4.0 0.00 0.00 0.00 100 963.0
20260902013206 49 316 3.0 4.0 0.00 0.00 0.00 100 963.0
20260902013105 49 325 3.0 4.0 0.00 0.00 0.00 100 963.0
20260902013002 49 337 3.0 4.0 0.00 0.00 0.00 100 963.0
20260902012759 49 349 4.0 4.0 0.00 0.00 0.00 100 962.9
20260902012556 49 354 4.0 5.0 0.00 0.00 0.00 100 963.0
20260902012353 50 357 4.0 5.0 0.00 0.00 0.00 100 963.1
20260902012150 50 346 2.0 5.0 0.00 0.00 0.00 100 963.1
20260902011947 50 0 0.0 2.0 0.00 0.00 0.00 100 963.0
20260902011846 50 0 0.0 1.0 0.00 0.00 0.00 100 963.0
20260902011743 50 0 0.0 0.0 0.00 0.00 0.00 100 963.1
20260902011540 50 0 0.0 1.0 0.00 0.00 0.00 100 963.1
20260902011336 50 0 0.0 1.0 0.00 0.00 0.00 100 963.0
20260902011236 50 0 0.0 1.0 0.00 0.00 0.00 100 963.1
20260902011130 51 0 0.0 1.0 0.00 0.00 0.00 100 963.1
20260902010927 51 0 0.0 1.0 0.00 0.00 0.00 100 963.1
20260902010723 51 0 0.0 1.0 0.00 0.00 0.00 100 963.1
20260902010520 51 0 0.0 2.0 0.00 0.00 0.00 100 963.0
20260902010317 51 0 0.0 2.0 0.00 0.00 0.00 100 962.9
20260902010114 51 0 1.0 2.0 0.00 0.00 0.00 100 963.0
20260902010013 51 324 1.0 2.0 0.00 0.00 0.00 100 963.0
20260902005911 51 337 1.0 3.0 0.00 0.00 0.00 100 963.1
20260902005707 51 340 2.0 3.0 0.00 0.00 0.00 100 963.0
20260902005504 51 334 2.0 3.0 0.00 0.00 0.00 100 963.0
20260902005403 51 336 2.0 3.0 0.00 0.00 0.00 100 963.0
20260902005301 51 339 2.0 3.0 0.00 0.00 0.00 100 963.0
20260902005057 51 344 2.0 3.0 0.00 0.00 0.00 100 963.0
20260902004854 51 357 1.0 2.0 0.00 0.00 0.00 100 963.0
20260902004754 51 3 1.0 2.0 0.00 0.00 0.00 100 963.0
20260902004651 51 6 1.0 2.0 0.00 0.00 0.00 100 962.9
20260902004448 51 358 2.0 4.0 0.00 0.00 0.00 100 963.0
20260902004244 52 346 2.0 4.0 0.00 0.00 0.00 100 963.0
20260902004144 51 338 2.0 4.0 0.00 0.00 0.00 100 962.9
20260902004041 51 327 2.0 4.0 0.00 0.00 0.00 100 962.9
20260902003838 51 0 1.0 2.0 0.00 0.00 0.00 100 962.9
20260902003635 51 0 0.0 1.0 0.00 0.00 0.00 100 963.0
20260902003535 51 0 0.0 1.0 0.00 0.00 0.00 100 962.9
20260902003432 51 0 0.0 1.0 0.00 0.00 0.00 100 962.9
20260902003228 51 0 0.0 2.0 0.00 0.00 0.00 100 963.0
20260902003025 51 0 1.0 2.0 0.00 0.00 0.00 100 963.0
20260902002925 51 0 1.0 2.0 0.00 0.00 0.00 100 963.0
20260902002822 51 0 1.0 2.0 0.00 0.00 0.00 100 963.0
20260902002620 51 0 0.0 2.0 0.00 0.00 0.00 100 963.0
20260902002416 52 11 1.0 2.0 0.00 0.00 0.00 100 963.0
20260902002214 52 5 1.0 2.0 0.00 0.00 0.00 100 963.1
20260902002010 51 344 1.0 2.0 0.00 0.00 0.00 100 963.0
20260902001807 51 0 0.0 2.0 0.00 0.00 0.00 100 963.0
20260902001707 51 0 0.0 2.0 0.00 0.00 0.00 100 963.0
20260902001604 51 0 0.0 2.0 0.00 0.00 0.00 100 963.0
20260902001402 50 0 0.0 2.0 0.00 0.00 0.00 100 963.0
20260902001158 51 0 0.0 2.0 0.00 0.00 0.00 100 962.9
20260902000952 51 244 1.0 2.0 0.00 0.00 0.00 100 962.9
20260902000749 51 254 1.0 3.0 0.00 0.00 0.00 100 962.9
20260902000546 51 262 2.0 3.0 0.00 0.00 0.00 100 963.0
20260902000344 51 259 2.0 3.0 0.00 0.00 0.00 100 963.0
20260902000140 51 263 2.0 3.0 0.00 0.00 0.00 100 962.9
20260901235937 50 295 2.0 3.0 0.00 0.00 0.00 100 963.0
20260901235836 50 299 3.0 3.0 0.00 0.00 0.00 100 963.0
20260901235733 50 303 3.0 3.0 0.00 0.00 0.00 100 963.0
20260901235530 50 308 3.0 3.0 0.00 0.00 0.00 100 963.0
20260901235326 50 307 3.0 4.0 0.00 0.00 0.00 100 963.0
20260901235226 50 305 3.0 4.0 0.00 0.00 0.00 100 962.9
20260901235123 51 304 3.0 4.0 0.00 0.00 0.00 100 963.0
20260901234920 51 298 3.0 4.0 0.00 0.00 0.00 100 962.9
20260901234717 51 299 3.0 4.0 0.00 0.00 0.00 100 963.0
20260901234617 51 302 4.0 4.0 0.00 0.00 0.00 100 962.9
20260901234514 51 306 4.0 5.0 0.00 0.00 0.00 100 962.9
20260901234301 51 304 4.0 5.0 0.00 0.00 0.00 100 963.0
20260901234058 51 299 3.0 4.0 0.00 0.00 0.00 100 962.9
20260901233958 51 297 3.0 4.0 0.00 0.00 0.00 100 963.0
20260901233855 51 299 3.0 4.0 0.00 0.00 0.00 100 962.9
20260901233652 51 304 2.0 4.0 0.00 0.00 0.00 100 962.9
20260901233449 51 317 2.0 3.0 0.00 0.00 0.00 100 963.0
20260901233349 51 327 2.0 2.0 0.00 0.00 0.00 100 963.1
20260901233246 51 332 2.0 2.0 0.00 0.00 0.00 100 963.0
20260901233042 51 338 2.0 2.0 0.00 0.00 0.00 100 963.0
20260901232839 51 350 2.0 3.0 0.00 0.00 0.00 100 963.0
20260901232636 52 6 2.0 3.0 0.00 0.00 0.00 100 962.9
20260901232433 52 16 2.0 3.0 0.00 0.00 0.00 100 962.9
20260901232230 52 9 2.0 3.0 0.00 0.00 0.00 100 963.0
20260901232129 52 4 2.0 3.0 0.00 0.00 0.00 100 962.9
20260901232026 52 359 2.0 3.0 0.00 0.00 0.00 100 962.9
20260901231824 52 334 1.0 2.0 0.00 0.00 0.00 100 962.9
20260901231620 52 311 1.0 2.0 0.00 0.00 0.00 100 962.8
20260901231520 52 309 1.0 2.0 0.00 0.00 0.00 100 962.9
20260901231417 53 316 1.0 2.0 0.00 0.00 0.00 100 962.8
20260901231215 53 336 1.0 2.0 0.00 0.00 0.00 100 962.8
20260901231011 53 334 2.0 3.0 0.00 0.00 0.00 100 962.9
20260901230911 53 333 2.0 2.0 0.00 0.00 0.00 100 962.8
20260901230805 53 332 2.0 2.0 0.00 0.00 0.00 100 962.8
20260901230601 53 320 1.0 2.0 0.00 0.00 0.00 100 962.9
20260901230358 53 297 1.0 2.0 0.00 0.00 0.00 100 963.0
20260901230155 53 293 1.0 2.0 0.00 0.00 0.00 100 963.0
20260901225952 53 289 1.0 2.0 0.00 0.00 0.00 100 962.8
20260901225749 53 295 2.0 2.0 0.00 0.00 0.00 100 963.0
20260901225648 53 295 2.0 2.0 0.00 0.00 0.00 100 963.0
20260901225546 53 300 2.0 2.0 0.00 0.00 0.00 100 962.9
20260901225343 53 307 2.0 2.0 0.00 0.00 0.00 100 963.0
20260901225139 53 328 2.0 2.0 0.00 0.00 0.00 100 963.0
20260901225039 53 334 2.0 3.0 0.00 0.00 0.00 100 963.0
20260901224936 53 328 2.0 3.0 0.00 0.00 0.00 100 962.9
20260901224733 53 305 2.0 3.0 0.00 0.00 0.00 100 963.0
20260901224530 53 275 2.0 3.0 0.00 0.00 0.00 100 963.0
20260901224429 53 254 1.0 3.0 0.00 0.00 0.00 100 963.0
20260901224326 53 252 1.0 3.0 0.00 0.00 0.00 100 963.0
20260901224124 53 247 1.0 3.0 0.00 0.00 0.00 100 962.9
20260901223921 53 234 1.0 3.0 0.00 0.00 0.00 100 963.0
20260901223821 53 0 1.0 3.0 0.00 0.00 0.00 100 962.9
20260901223718 53 0 1.0 3.0 0.00 0.00 0.00 100 962.9
20260901223516 53 0 1.0 3.0 0.00 0.00 0.00 100 963.0
20260901223313 53 0 0.0 2.0 0.00 0.00 0.00 100 962.9
20260901223110 53 0 0.0 2.0 0.00 0.00 0.00 100 962.9
20260901222907 53 0 0.0 3.0 0.00 0.00 0.00 100 962.9
20260901222704 53 0 0.0 3.0 0.00 0.00 0.00 100 962.9
20260901222604 53 0 0.0 3.0 0.00 0.00 0.00 100 963.0
20260901222501 53 0 0.0 2.0 0.00 0.00 0.00 100 963.0
20260901222259 53 196 1.0 2.0 0.00 0.00 0.00 100 963.0
20260901222056 53 193 1.0 2.0 0.00 0.00 0.00 100 963.0
20260901221955 53 196 1.0 2.0 0.00 0.00 0.00 100 963.0
20260901221852 53 203 1.0 2.0 0.00 0.00 0.00 100 963.0
20260901221649 53 215 1.0 2.0 0.00 0.00 0.00 100 962.9
20260901221446 53 0 0.0 2.0 0.00 0.00 0.00 100 962.9
20260901221345 53 0 0.0 1.0 0.00 0.00 0.00 100 962.9
20260901221243 53 0 0.0 2.0 0.00 0.00 0.00 100 963.0
20260901221040 53 0 0.0 2.0 0.00 0.00 0.00 100 962.9
20260901220836 53 0 0.0 2.0 0.00 0.00 0.00 100 962.9
20260901220736 53 0 0.0 2.0 0.00 0.00 0.00 100 962.9
20260901220629 53 0 0.0 2.0 0.00 0.00 0.00 100 962.9
20260901220426 53 0 1.0 2.0 0.00 0.00 0.00 100 962.9
20260901220223 53 0 0.0 1.0 0.00 0.00 0.00 100 962.9
20260901220122 54 0 0.0 2.0 0.00 0.00 0.00 100 963.0
20260901220020 53 0 0.0 2.0 0.00 0.00 0.00 100 963.1
20260901215817 54 0 0.0 2.0 0.00 0.00 0.00 100 963.0
20260901215615 54 0 0.0 2.0 0.00 0.00 0.00 100 962.9
20260901215514 54 0 0.0 2.0 0.00 0.00 0.00 100 962.9
20260901215411 54 0 0.0 2.0 0.00 0.00 0.00 100 962.9
20260901215208 54 0 0.0 2.0 0.00 0.00 0.00 100 963.0
20260901215005 54 0 0.0 2.0 0.00 0.00 0.00 100 963.0
20260901214905 54 0 0.0 2.0 0.00 0.00 0.00 100 962.9
20260901214803 54 0 0.0 2.0 0.00 0.00 0.00 100 963.0
20260901214559 54 0 0.0 3.0 0.00 0.00 0.00 100 962.9
20260901214356 54 0 0.0 3.0 0.00 0.00 0.00 100 962.9
20260901214255 54 0 0.0 3.0 0.00 0.00 0.00 100 962.9
20260901214153 54 0 0.0 2.0 0.00 0.00 0.00 100 962.9
20260901213950 54 0 0.0 2.0 0.00 0.00 0.00 100 963.0
20260901213747 55 0 0.0 2.0 0.00 0.00 0.00 100 962.9
20260901213647 55 237 0.0 2.0 0.00 0.00 0.00 100 962.9
20260901213545 55 245 1.0 2.0 0.00 0.00 0.00 100 963.0
20260901213341 55 253 2.0 3.0 0.00 0.00 0.00 100 962.9
20260901213138 55 252 1.0 3.0 0.00 0.00 0.00 100 962.9
20260901213038 55 246 1.0 2.0 0.00 0.00 0.00 100 963.0
20260901212935 55 240 1.0 2.0 0.00 0.00 0.00 100 963.0
20260901212732 55 248 1.0 2.0 0.00 0.00 0.00 100 963.0
20260901212529 55 270 1.0 3.0 0.00 0.00 0.00 100 963.0
20260901212428 55 272 2.0 3.0 0.00 0.00 0.00 100 963.0
20260901212326 55 281 2.0 3.0 0.00 0.00 0.00 100 962.9
20260901212124 55 296 2.0 3.0 0.00 0.00 0.00 100 962.9
20260901211921 55 307 2.0 2.0 0.00 0.00 0.00 100 962.9
20260901211820 55 307 2.0 2.0 0.00 0.00 0.00 100 962.9
20260901211717 55 305 2.0 2.0 0.00 0.00 0.00 100 962.9
20260901211514 55 305 2.0 3.0 0.00 0.00 0.00 100 962.9
20260901211312 55 311 2.0 3.0 0.00 0.00 0.00 100 962.9
20260901211211 55 311 2.0 3.0 0.00 0.00 0.00 100 962.8
20260901211108 56 311 2.0 3.0 0.00 0.00 0.00 100 962.9
20260901210905 56 296 2.0 4.0 0.00 0.00 0.00 100 962.8
20260901210702 56 284 3.0 4.0 0.00 0.00 0.00 100 962.8
20260901210601 56 280 2.0 4.0 0.00 0.00 0.00 100 962.8
20260901210442 56 273 2.0 4.0 0.00 0.00 0.00 100 962.9
20260901210238 56 273 1.0 3.0 0.00 0.00 0.00 100 962.9
20260901210035 56 300 1.0 2.0 0.00 0.00 0.00 100 962.9
20260901205935 56 311 2.0 2.0 0.00 0.00 0.00 100 962.7
20260901205832 56 311 2.0 3.0 0.00 0.00 0.00 100 962.9
20260901205630 56 303 2.0 3.0 0.00 0.00 0.00 100 962.8
20260901205427 56 303 2.0 3.0 0.00 0.00 0.00 100 962.8
20260901205326 56 310 2.0 2.0 0.00 0.00 0.00 100 962.7
20260901205223 56 315 2.0 2.0 0.00 0.00 0.00 100 962.9
20260901205020 56 320 2.0 2.0 0.00 0.00 0.00 100 962.7
20260901204817 55 338 2.0 2.0 0.00 0.00 0.00 100 962.7
20260901204716 55 347 2.0 3.0 0.00 0.00 0.00 100 962.9
20260901204614 56 357 2.0 3.0 0.00 0.00 0.00 100 962.7
20260901204411 56 13 3.0 4.0 0.00 0.00 0.00 100 962.7
20260901204208 57 29 2.0 4.0 0.00 0.00 0.00 100 962.7
20260901204107 57 21 2.0 4.0 0.00 0.00 0.00 100 962.7
20260901204005 57 0 1.0 3.0 0.00 0.00 0.00 100 962.7
20260901203802 57 0 1.0 2.0 0.00 0.00 0.00 100 962.6
20260901203600 57 0 1.0 3.0 0.00 0.00 0.00 100 962.7
20260901203458 57 0 1.0 3.0 0.00 0.00 0.00 100 962.6
20260901203356 57 0 1.0 3.0 0.00 0.00 0.00 100 962.6
20260901203153 57 0 1.0 3.0 0.00 0.00 0.00 100 962.6
20260901202951 57 0 1.0 5.0 0.00 0.00 0.00 100 962.5
20260901202850 57 0 1.0 5.0 0.00 0.00 0.00 100 962.5
20260901202747 57 0 1.0 5.0 0.00 0.00 0.00 100 962.6
20260901202544 57 0 1.0 3.0 0.00 0.00 0.00 100 962.5
20260901202341 58 0 1.0 3.0 0.00 0.00 0.00 100 962.5
20260901202240 57 0 1.0 3.0 0.00 0.00 0.00 100 962.6
20260901202138 57 0 1.0 3.0 0.00 0.00 0.00 100 962.6
20260901201935 57 0 1.0 3.0 0.00 0.00 0.00 100 962.7
20260901201731 57 0 1.0 3.0 0.00 0.00 0.00 100 962.7
20260901201631 57 0 1.0 3.0 0.00 0.00 0.00 100 962.6
20260901201528 57 0 1.0 3.0 0.00 0.00 0.00 100 962.8
20260901201325 57 0 1.0 4.0 0.00 0.00 0.00 100 962.7
20260901201122 57 0 1.0 4.0 0.00 0.00 0.00 100 962.7
20260901201022 57 0 1.0 4.0 0.00 0.00 0.00 100 962.7
20260901200919 57 0 1.0 4.0 0.00 0.00 0.00 100 962.8
20260901200716 57 0 1.0 4.0 0.00 0.00 0.00 100 962.7
20260901200513 57 0 1.0 3.0 0.00 0.00 0.00 100 962.7
20260901200412 57 0 1.0 3.0 0.00 0.00 0.00 100 962.7
20260901200306 57 0 1.0 3.0 0.00 0.00 0.00 100 962.7
20260901200104 57 0 1.0 3.0 0.00 0.00 0.00 100 962.7
20260901195900 57 0 1.0 3.0 0.00 0.00 0.00 100 962.6
20260901195759 57 0 1.0 3.0 0.00 0.00 0.00 100 962.6
20260901195657 57 0 1.0 3.0 0.00 0.00 0.00 100 962.6
20260901195454 57 0 1.0 3.0 0.00 0.00 0.00 100 962.7
20260901195251 57 0 1.0 3.0 0.00 0.00 0.00 100 962.7
20260901195150 57 0 1.0 3.0 0.00 0.00 0.00 100 962.7
20260901195048 57 0 1.0 4.0 0.00 0.00 0.00 100 962.6
20260901194845 57 0 1.0 4.0 0.00 0.00 0.00 100 962.7
20260901194642 57 0 1.0 5.0 0.00 0.00 0.00 100 962.8
20260901194541 57 0 1.0 5.0 0.00 0.00 0.00 100 962.7
20260901194439 57 0 1.0 5.0 0.00 0.00 0.00 100 962.7
20260901194236 57 218 1.0 6.0 0.00 0.00 0.00 100 962.6
20260901194032 57 0 1.0 6.0 0.00 0.00 0.00 100 962.7
20260901193931 57 0 1.0 5.0 0.00 0.00 0.00 100 962.7
20260901193829 57 0 1.0 5.0 0.00 0.00 0.00 100 962.7
20260901193625 58 0 1.0 5.0 0.00 0.00 0.00 100 962.7
20260901193422 58 0 1.0 5.0 0.00 0.00 0.00 100 962.7
20260901193322 58 0 1.0 5.0 0.00 0.00 0.00 100 962.6
20260901193219 58 0 1.0 4.0 0.00 0.00 0.00 100 962.6
20260901193016 58 0 1.0 4.0 0.00 0.00 0.00 100 962.6
20260901192812 58 0 1.0 4.0 0.00 0.00 0.00 100 962.6
20260901192711 58 0 1.0 4.0 0.00 0.00 0.00 100 962.7
20260901192609 58 217 1.0 4.0 0.00 0.00 0.00 100 962.7
20260901192406 58 214 1.0 5.0 0.00 0.00 0.00 100 962.6
20260901192202 58 0 1.0 6.0 0.00 0.00 0.00 100 962.6
20260901192102 58 0 1.0 6.0 0.00 0.00 0.00 100 962.6
20260901191959 58 0 1.0 6.0 0.00 0.00 0.00 100 962.6
20260901191756 58 0 1.0 4.0 0.00 0.00 0.00 100 962.5
20260901191553 58 0 1.0 6.0 0.00 0.00 0.00 100 962.6
20260901191452 58 0 1.0 6.0 0.00 0.00 0.00 100 962.6
20260901191349 58 0 1.0 6.0 0.00 0.00 0.00 100 962.6
20260901191146 58 0 1.0 6.0 0.00 0.00 0.00 100 962.5
20260901190943 58 0 1.0 6.0 0.00 0.00 0.00 100 962.6
20260901190740 58 0 1.0 5.0 0.00 0.00 0.00 100 962.6
20260901190537 58 0 1.0 6.0 0.00 0.00 0.00 100 962.6
20260901190334 58 0 1.0 6.0 0.00 0.00 0.00 100 962.5
20260901190233 58 0 1.0 6.0 0.00 0.00 0.00 100 962.5
20260901190127 58 0 1.0 5.0 0.00 0.00 0.00 100 962.5
20260901185925 58 0 1.0 5.0 0.00 0.00 0.00 100 962.6
20260901185721 59 242 1.0 5.0 0.00 0.00 0.00 100 962.6
20260901185621 58 237 1.0 5.0 0.00 0.00 0.00 100 962.5
20260901185519 58 241 1.0 5.0 0.00 0.00 0.00 100 962.6
20260901185315 58 0 1.0 5.0 0.00 0.00 0.00 100 962.5
20260901185112 58 0 1.0 4.0 0.00 0.00 0.00 100 962.5
20260901185012 58 0 1.0 4.0 0.00 0.00 0.00 100 962.5
20260901184910 58 0 1.0 4.0 0.00 0.00 0.00 100 962.5
20260901184707 58 0 1.0 4.0 0.00 0.00 0.00 100 962.5
20260901184504 58 0 1.0 4.0 0.00 0.00 0.00 100 962.5
20260901184403 58 0 1.0 4.0 0.00 0.00 0.00 100 962.4
20260901184300 58 0 1.0 4.0 0.00 0.00 0.00 100 962.5
20260901184058 58 0 1.0 4.0 0.00 0.00 0.00 100 962.5
20260901183854 58 0 1.0 3.0 0.00 0.00 0.00 100 962.4
20260901183754 58 0 1.0 4.0 0.00 0.00 0.00 100 962.4
20260901183651 58 0 1.0 4.0 0.00 0.00 0.00 100 962.6
20260901183448 59 0 1.0 4.0 0.00 0.00 0.00 100 962.5
20260901183244 59 0 0.0 2.0 0.00 0.00 0.00 100 962.5
20260901183143 59 0 0.0 3.0 0.00 0.00 0.00 100 962.5
20260901183041 59 0 1.0 3.0 0.00 0.00 0.00 100 962.5
20260901182838 59 0 1.0 3.0 0.00 0.00 0.00 100 962.5
20260901182634 59 0 1.0 3.0 0.00 0.00 0.00 100 962.5
20260901182418 59 0 1.0 4.0 0.00 0.00 0.00 100 962.5
20260901182215 59 0 1.0 4.0 0.00 0.00 0.00 100 962.5
20260901182013 59 0 1.0 4.0 0.00 0.00 0.00 100 962.4
20260901181912 59 0 1.0 4.0 0.00 0.00 0.00 100 962.4
20260901181809 59 0 1.0 4.0 0.00 0.00 0.00 100 962.4
20260901181606 59 0 1.0 4.0 0.00 0.00 0.00 100 962.5
20260901181403 59 0 1.0 4.0 0.00 0.00 0.00 100 962.4
20260901181303 59 0 1.0 3.0 0.00 0.00 0.00 100 962.3
20260901181200 59 0 1.0 3.0 0.00 0.00 0.00 100 962.3
20260901180957 59 0 1.0 3.0 0.00 0.00 0.00 100 962.3
20260901180754 59 0 1.0 3.0 0.00 0.00 0.00 100 962.4
20260901180654 59 0 1.0 3.0 0.00 0.00 0.00 100 962.3
20260901180551 59 0 1.0 3.0 0.00 0.00 0.00 100 962.3
20260901180347 59 0 1.0 5.0 0.00 0.00 0.00 100 962.2
20260901180144 59 0 1.0 5.0 0.00 0.00 0.00 100 962.2
20260901175939 59 0 1.0 3.0 0.00 0.00 0.00 100 962.2
20260901175737 59 0 1.0 3.0 0.00 0.00 0.00 100 962.2
20260901175533 59 0 0.0 3.0 0.00 0.00 0.00 100 962.2
20260901175432 59 0 0.0 3.0 0.00 0.00 0.00 100 962.2
20260901175330 59 0 0.0 3.0 0.00 0.00 0.00 100 962.1
20260901175127 59 0 0.0 2.0 0.00 0.00 0.00 100 962.1
20260901174923 59 0 0.0 2.0 0.00 0.00 0.00 100 962.1
20260901174823 60 0 0.0 2.0 0.00 0.00 0.00 100 962.0
20260901174721 60 0 0.0 2.0 0.00 0.00 0.00 100 962.0
20260901174518 60 0 1.0 2.0 0.00 0.00 0.00 100 962.0
20260901174315 60 0 1.0 3.0 0.00 0.00 0.00 100 962.0
20260901174214 60 0 1.0 3.0 0.00 0.00 0.00 100 962.0
20260901174112 60 0 1.0 3.0 0.00 0.00 0.00 100 962.0
20260901173909 60 0 0.0 2.0 0.00 0.00 0.00 100 962.0
20260901173705 61 0 0.0 3.0 0.00 0.00 0.00 100 961.9
20260901173502 61 242 2.0 6.0 0.00 0.00 0.00 100 961.9
20260901173300 62 252 1.0 6.0 0.00 0.00 0.00 100 961.8
20260901173057 61 0 0.0 2.0 0.00 0.00 0.00 100 961.8
20260901172956 61 0 0.0 2.0 0.00 0.00 0.00 100 961.9
20260901172853 62 0 0.0 2.0 0.00 0.00 0.00 100 961.9
20260901172649 62 0 0.0 2.0 0.00 0.00 0.00 100 961.9
20260901172446 63 260 1.0 3.0 0.00 0.00 0.00 100 961.8
20260901172346 63 268 1.0 4.0 0.00 0.00 0.00 100 961.9
20260901172243 63 287 2.0 4.0 0.00 0.00 0.00 100 961.9
20260901172040 63 296 2.0 4.0 0.00 0.00 0.00 100 961.7
20260901171837 63 285 3.0 7.0 0.00 0.00 0.00 100 961.9
20260901171738 63 286 3.0 7.0 0.00 0.00 0.00 100 961.8
20260901171634 63 284 4.0 7.0 0.00 0.00 0.00 100 961.8
20260901171431 63 283 4.0 6.0 0.00 0.00 0.00 100 961.8
20260901171227 64 278 3.0 6.0 0.00 0.00 0.00 100 961.8
20260901171127 64 275 3.0 6.0 0.00 0.00 0.00 100 961.8
20260901171025 64 272 3.0 5.0 0.00 0.00 0.00 100 961.8
20260901170822 64 280 5.0 10.0 0.00 0.00 0.00 100 961.8
20260901170619 64 281 6.0 10.0 0.00 0.00 0.00 100 961.9
20260901170416 64 275 4.0 10.0 0.00 0.00 0.00 100 961.7
20260901170214 64 273 4.0 6.0 0.00 0.00 0.00 100 961.8
20260901170011 64 281 4.0 6.0 0.00 0.00 0.00 100 961.7
20260901165805 64 286 5.0 8.0 0.00 0.00 0.00 100 961.7
20260901165602 64 295 6.0 8.0 0.00 0.00 0.00 100 961.8
20260901165359 64 286 6.0 12.0 0.00 0.00 0.00 100 961.7
20260901165258 64 280 6.0 12.0 0.00 0.00 0.00 100 961.7
20260901165156 65 272 6.0 12.0 0.00 0.00 0.00 100 961.7
20260901164952 64 262 4.0 12.0 0.00 0.00 0.00 100 961.7
20260901164751 64 259 4.0 12.0 0.00 0.00 0.00 100 961.7
20260901164548 65 259 4.0 12.0 0.00 0.00 0.00 100 961.6
20260901164344 64 260 4.0 10.0 0.00 0.00 0.00 100 961.6
20260901164142 64 261 4.0 8.0 0.00 0.00 0.00 100 961.8
20260901163938 64 262 3.0 8.0 0.00 0.00 0.00 100 961.7
20260901163735 65 267 4.0 8.0 0.00 0.00 0.00 100 961.7
20260901163532 65 263 5.0 10.0 0.00 0.00 0.00 100 961.7
20260901163329 65 272 5.0 10.0 0.00 0.00 0.00 100 961.7
20260901163126 65 285 6.0 10.0 0.00 0.00 0.00 100 961.6
20260901162923 65 287 6.0 10.0 0.00 0.00 0.00 100 961.7
20260901162822 65 285 5.0 8.0 0.00 0.00 0.00 100 961.7
20260901162720 65 267 5.0 8.0 0.00 0.00 0.00 100 961.6
20260901162517 65 267 5.0 9.0 0.00 0.00 0.00 100 961.7
20260901162313 65 282 6.0 9.0 0.00 0.00 0.00 100 961.8
20260901162213 65 287 6.0 11.0 0.00 0.00 0.00 100 961.7
20260901162111 65 288 6.0 11.0 0.00 0.00 0.00 100 961.8
20260901161908 65 288 6.0 11.0 0.00 0.00 0.00 100 961.7
20260901161705 65 296 5.0 8.0 0.00 0.00 0.00 100 961.7
20260901161605 65 295 5.0 8.0 0.00 0.00 0.00 100 961.6
20260901161502 65 297 6.0 9.0 0.00 0.00 0.00 100 961.7
20260901161259 65 295 5.0 9.0 0.00 0.00 0.00 100 961.7
20260901161056 65 287 4.0 8.0 0.00 0.00 0.00 100 961.7
20260901160956 65 280 4.0 7.0 0.00 0.00 0.00 100 961.8
20260901160853 65 281 5.0 7.0 0.00 0.00 0.00 100 961.7
20260901160649 65 284 5.0 9.0 0.00 0.00 0.00 100 961.6
20260901160446 65 289 5.0 9.0 0.00 0.00 0.00 100 961.6
20260901160346 66 288 6.0 9.0 0.00 0.00 0.00 100 961.7
20260901160243 66 285 6.0 9.0 0.00 0.00 0.00 100 961.6
20260901160039 66 270 6.0 12.0 0.00 0.00 0.00 100 961.5
20260901155837 66 277 6.0 12.0 0.00 0.00 0.00 100 961.5
20260901155736 66 280 8.0 12.0 0.00 0.00 0.00 100 961.6
20260901155440 66 273 6.0 12.0 0.00 0.00 0.00 100 961.6
20260901155237 66 283 5.0 8.0 0.00 0.00 0.00 100 961.6
20260901155136 66 289 5.0 8.0 0.00 0.00 0.00 100 961.5
20260901155033 66 294 5.0 8.0 0.00 0.00 0.00 100 961.5
20260901154830 66 310 5.0 7.0 0.00 0.00 0.00 100 961.5
20260901154628 66 298 4.0 6.0 0.00 0.00 0.00 100 961.4
20260901154527 66 295 5.0 8.0 0.00 0.00 0.00 100 961.5
20260901154424 66 299 5.0 8.0 0.00 0.00 0.00 100 961.5
20260901154221 66 295 6.0 8.0 0.00 0.00 0.00 100 961.5
20260901154018 66 288 5.0 8.0 0.00 0.00 0.00 100 961.4
20260901153904 66 283 5.0 7.0 0.00 0.00 0.00 100 961.4
20260901153801 66 286 4.0 7.0 0.00 0.00 0.00 100 961.5
20260901153559 67 293 5.0 9.0 0.00 0.00 0.00 100 961.5
20260901153356 66 303 8.0 14.0 0.00 0.00 0.00 100 961.4
20260901153254 66 305 8.0 14.0 0.00 0.00 0.00 100 961.4
20260901153152 66 298 10.0 18.0 0.00 0.00 0.00 100 961.5
20260901152949 66 288 8.0 18.0 0.00 0.00 0.00 100 961.4
20260901152746 67 287 7.0 12.0 0.00 0.00 0.00 100 961.3
20260901152645 67 291 7.0 12.0 0.00 0.00 0.00 100 961.4
20260901152543 67 296 7.0 12.0 0.00 0.00 0.00 100 961.4
20260901152340 67 301 7.0 11.0 0.00 0.00 0.00 100 961.4
20260901152137 67 300 6.0 9.0 0.00 0.00 0.00 100 961.4
20260901152037 67 302 5.0 7.0 0.00 0.00 0.00 100 961.4
20260901151935 67 306 6.0 10.0 0.00 0.00 0.00 100 961.4
20260901151731 67 309 6.0 10.0 0.00 0.00 0.00 100 961.4
20260901151528 67 300 4.0 9.0 0.00 0.00 0.00 100 961.4
20260901151427 67 295 3.0 7.0 0.00 0.00 0.00 100 961.4
20260901151325 67 286 4.0 6.0 0.00 0.00 0.00 100 961.4
20260901151122 67 288 5.0 8.0 0.00 0.00 0.00 100 961.3
20260901150919 67 303 7.0 12.0 0.00 0.00 0.00 100 961.4
20260901150818 67 295 8.0 14.0 0.00 0.00 0.00 100 961.3
20260901150716 67 291 7.0 14.0 0.00 0.00 0.00 100 961.3
20260901150513 68 253 5.0 14.0 0.00 0.00 0.00 100 961.3
20260901150310 68 243 2.0 9.0 0.00 0.00 0.00 100 961.4
20260901150209 68 254 2.0 8.0 0.00 0.00 0.00 100 961.3
20260901150107 68 270 2.0 6.0 0.00 0.00 0.00 100 961.4
20260901145904 67 282 5.0 9.0 0.00 0.00 0.00 100 961.3
20260901145701 67 290 6.0 8.0 0.00 0.00 0.00 100 961.3
20260901145601 67 293 6.0 8.0 0.00 0.00 0.00 100 961.2
20260901145458 67 294 6.0 8.0 0.00 0.00 0.00 100 961.2
20260901145256 68 287 3.0 7.0 0.00 0.00 0.00 100 961.3
20260901145052 68 290 4.0 14.0 0.00 0.00 0.00 100 961.3
20260901144952 68 290 5.0 15.0 0.00 0.00 0.00 100 961.3
20260901144849 68 291 6.0 15.0 0.00 0.00 0.00 100 961.3
20260901144646 68 286 4.0 14.0 0.00 0.00 0.00 100 961.3
20260901144443 68 287 4.0 9.0 0.00 0.00 0.00 100 961.3
20260901144342 68 289 6.0 10.0 0.00 0.00 0.00 100 961.3
20260901144239 68 295 6.0 10.0 0.00 0.00 0.00 100 961.2
20260901144036 68 305 5.0 10.0 0.00 0.00 0.00 100 961.3
20260901143833 68 300 5.0 9.0 0.00 0.00 0.00 100 961.3
20260901143732 68 303 6.0 13.0 0.00 0.00 0.00 100 961.3
20260901143630 67 306 8.0 13.0 0.00 0.00 0.00 100 961.4
20260901143427 67 317 8.0 13.0 0.00 0.00 0.00 100 961.3
20260901143224 67 313 7.0 14.0 0.00 0.00 0.00 100 961.3
20260901143123 67 307 6.0 14.0 0.00 0.00 0.00 100 961.2
20260901143021 67 302 6.0 14.0 0.00 0.00 0.00 100 961.2
20260901142818 67 304 7.0 12.0 0.00 0.00 0.00 100 961.4
20260901142615 67 302 5.0 12.0 0.00 0.00 0.00 100 961.1
20260901142515 67 291 4.0 11.0 0.00 0.00 0.00 100 961.1
20260901142412 67 283 4.0 8.0 0.00 0.00 0.00 100 961.3
20260901142209 67 285 5.0 8.0 0.00 0.00 0.00 100 961.2